Minneapolis, MN

9:44 AM CDT on October 21, 2017 (GMT -0500)
Minneapolis-Saint Paul International

Weather History for KMSP - October, 2012

Change the Weather History Date:

Sunday, October 7, 2012

  Actual Average Record
Temperature  
Mean Temperature 41 °F 53 °F  
Max Temperature 53 °F 62 °F 85 °F (2003)
Min Temperature 28 °F 43 °F 25 °F (1976)
Degree Days  
Heating Degree Days 24 13  
Month to date heating degree days 96 81  
Since 1 July heating degree days 221 254  
Cooling Degree Days 0 0  
Month to date cooling degree days 0 3  
Year to date cooling degree days 1131 750  
Moisture  
Dew Point 21 °F    
Average Humidity 50    
Maximum Humidity 78    
Minimum Humidity 22    
Precipitation  
Precipitation 0.00 in 0.09 in 0.98 in (1904)
Month to date precipitation 0.00 0.67  
Year to date precipitation 26.02 25.92  
Snow  
Snow 0.00 in 0.00 in T in (1915)
Month to date snowfall 0.0 0.0  
Since 1 July snowfall T T  
Since 1 September snowfall 0.0 T  
Snow Depth 0.00 in    
Sea Level Pressure  
Sea Level Pressure 30.10 in    
Wind  
Wind Speed 7 mph (SSW)    
Max Wind Speed 18 mph    
Max Gust Speed 26 mph    
Visibility 10 miles    
Events      
T = Trace of Precipitation, MM = Missing Value Source: NWS Daily Summary

Daily Weather History Graph

Daily Weather History Graph

Search for Another Location

Airport or City:

Trip Planner

Search our weather history database for the weather conditions in past years. The results will help you decide how hot, cold, wet, or windy it might be!

Date:

Astronomy

Oct. 07, 2012 Rise Set
Actual Time 7:18 AM CDT 6:41 PM CDT
Civil Twilight 6:49 AM CDT 7:10 PM CDT
Nautical Twilight 6:15 AM CDT 7:44 PM CDT
Astronomical Twilight 5:41 AM CDT 8:18 PM CDT
Moon 11:43 PM CDT (10/7) 2:07 PM CDT (10/7)
Length of Visible Light 12h 20m
Length of Day
11h 22m
Waning Gibbous, 56% of the Moon is Illuminated
Oct 7
Waning Gibbous
Oct 8
Last Quarter
Oct 15
New
Oct 21
First Quarter
Oct 29
Full

Hourly Weather History & Observations

Time (CDT) Temp. Windchill Dew Point Humidity Pressure Visibility Wind Dir Wind Speed Gust Speed Precip Events Conditions
12:53 AM 34.0 °F - 24.1 °F 67% 30.25 in 10.0 mi Calm Calm - N/A   Partly Cloudy
1:53 AM 34.0 °F - 24.1 °F 67% 30.24 in 10.0 mi Calm Calm - N/A   Clear
2:53 AM 32.0 °F 28.7 °F 24.1 °F 73% 30.24 in 10.0 mi SW 3.5 mph - N/A   Clear
3:53 AM 30.0 °F 26.5 °F 24.1 °F 79% 30.22 in 10.0 mi SSW 3.5 mph - N/A   Clear
4:53 AM 28.9 °F 25.2 °F 23.0 °F 78% 30.22 in 10.0 mi SSW 3.5 mph - N/A   Clear
5:53 AM 28.9 °F 25.2 °F 23.0 °F 78% 30.21 in 10.0 mi SSW 3.5 mph - N/A   Partly Cloudy
6:53 AM 28.9 °F 23.9 °F 21.9 °F 75% 30.21 in 10.0 mi SW 4.6 mph - N/A   Partly Cloudy
7:53 AM 28.0 °F - 21.9 °F 78% 30.20 in 10.0 mi Calm Calm - N/A   Partly Cloudy
8:53 AM 32.0 °F 24.8 °F 21.9 °F 66% 30.19 in 10.0 mi SW 8.1 mph - N/A   Partly Cloudy
9:53 AM 37.0 °F 28.9 °F 21.9 °F 54% 30.18 in 10.0 mi SW 12.7 mph - N/A   Partly Cloudy
10:53 AM 41.0 °F 34.7 °F 21.9 °F 47% 30.17 in 10.0 mi SW 10.4 mph - N/A   Partly Cloudy
11:53 AM 45.0 °F 38.9 °F 19.9 °F 37% 30.14 in 10.0 mi SW 12.7 mph - N/A   Partly Cloudy
12:53 PM 46.9 °F - 18.0 °F 32% 30.12 in 10.0 mi SW 9.2 mph 21.9 mph N/A   Scattered Clouds
1:53 PM 48.0 °F - 17.1 °F 29% 30.09 in 10.0 mi SSW 9.2 mph 21.9 mph N/A   Scattered Clouds
2:53 PM 50.0 °F - 17.1 °F 27% 30.05 in 10.0 mi SW 10.4 mph 18.4 mph N/A   Scattered Clouds
3:53 PM 52.0 °F - 15.1 °F 23% 30.02 in 10.0 mi SW 17.3 mph 24.2 mph N/A   Scattered Clouds
4:53 PM 52.0 °F - 14.0 °F 22% 30.00 in 10.0 mi SW 15.0 mph 19.6 mph N/A   Scattered Clouds
5:53 PM 52.0 °F - 15.1 °F 23% 29.98 in 10.0 mi SW 6.9 mph - N/A   Scattered Clouds
6:53 PM 50.0 °F - 18.0 °F 28% 29.96 in 10.0 mi South 5.8 mph - N/A   Partly Cloudy
7:53 PM 46.0 °F 42.5 °F 19.0 °F 34% 29.96 in 10.0 mi SSE 6.9 mph - N/A   Clear
8:53 PM 46.9 °F - 19.9 °F 34% 29.95 in 10.0 mi SSE 8.1 mph - N/A   Clear
9:53 PM 46.0 °F 42.5 °F 21.9 °F 39% 29.94 in 10.0 mi South 6.9 mph - N/A   Clear
10:53 PM 46.0 °F 42.5 °F 23.0 °F 40% 29.93 in 10.0 mi South 6.9 mph - N/A   Clear
11:53 PM 42.1 °F 38.4 °F 23.0 °F 47% 29.91 in 10.0 mi SE 5.8 mph - N/A   Clear